sat.trackr.live / text

‹ back to catalog

STARLINK-32173

NORAD 60586 · 2024-150D

PAYLOAD ACTIVE UNKNOWN

§ Identity

Operator
Country
US
Launch date
2024-08-20
Launch site
AFETR
Launch vehicle
Mass (kg)
RCS (m²)

Purposes: comms

External: N2YO · Heavens-Above · Gunter

§ Orbital elements

Epoch: 2026-09-21T21:02:50.010144Z

Period
93.85 min
Inclination
53.1600°
Eccentricity
0.0001439
Mean motion
15.34387186 rev/d
Perigee alt
461.8 km
Apogee alt
463.7 km
Semi-major
6,840.9 km
B*
9.0357e-6
RAAN
111.1379°
Arg perigee
85.9220°
Mean anomaly
274.1947°
Rev number
11,814

§ Raw data

STARLINK-321731 60586U 24150D   26264.87696771 -.00000071  00000+0  90357-5 0  99952 60586  53.1600 111.1379 0001439  85.9220 274.1947 15.34387186118143

JSON: /api/v1/satellites/60586 · /tle

For live sub-satellite position, see the globe view (requires WebGL).

§ Visibility from observer

Set your observer location to see the next 7 days of passes ≥ 10°. The values pass through the URL so the page stays shareable.

No JS? Fill the form by hand. The geolocation button needs JavaScript.